• In Hungary
  • List of Countries
  • For 7 days
  • Water Temperature
  • Satellite Maps
  • Weather Map
  • News
  • Weather Widgets
  • user-avatar
    Login

    Hourly Weather Obrosovo

    Today, 25 April, Wednesday

    Time Temperature Precipitation Wind Pressure Humidity
    00:00 +4°C° 0.1 mm 3 mps 741 mmHg 75%
    01:00 +4°C° 0.1 mm 3 mps 741 mmHg 81%
    02:00 +5°C° 0 mm 2 mps 740 mmHg 87%
    03:00 +5°C° 0.1 mm 2 mps 740 mmHg 89%
    04:00 +5°C° 0.1 mm 2 mps 740 mmHg 91%
    05:00 +5°C° 0.1 mm 2 mps 739 mmHg 93%
    06:00 +5°C° 0.1 mm 3 mps 739 mmHg 91%
    07:00 +5°C° 0.1 mm 3 mps 739 mmHg 89%
    08:00 +7°C° 0 mm 3 mps 739 mmHg 86%
    09:00 +8°C° 0.4 mm 3 mps 739 mmHg 85%
    10:00 +9°C° 0.4 mm 3 mps 738 mmHg 83%
    11:00 +9°C° 0.4 mm 3 mps 738 mmHg 82%
    12:00 +10°C° 0.6 mm 3 mps 738 mmHg 78%
    13:00 +11°C° 0.6 mm 3 mps 738 mmHg 75%
    14:00 +12°C° 0.6 mm 4 mps 737 mmHg 71%
    15:00 +11°C° 0.7 mm 3 mps 737 mmHg 71%
    16:00 +11°C° 0.7 mm 3 mps 737 mmHg 71%
    17:00 +11°C° 0.7 mm 3 mps 736 mmHg 71%
    18:00 +10°C° 0.2 mm 2 mps 736 mmHg 76%
    19:00 +8°C° 0.2 mm 2 mps 736 mmHg 82%
    20:00 +7°C° 0.2 mm 2 mps 736 mmHg 87%
    21:00 +6°C° 0 mm 2 mps 736 mmHg 89%
    22:00 +6°C° 0 mm 2 mps 736 mmHg 91%
    23:00 +5°C° 0 mm 2 mps 736 mmHg 92%

    Tomorrow, 26 April, Thursday

    Time Temperature Precipitation Wind Pressure Humidity
    00:00 +5°C° 0 mm 2 mps 736 mmHg 93%
    01:00 +5°C° 0 mm 2 mps 736 mmHg 94%
    02:00 +4°C° 0 mm 2 mps 736 mmHg 95%
    03:00 +4°C° 0 mm 2 mps 735 mmHg 94%
    04:00 +5°C° 0 mm 1 mps 735 mmHg 94%
    05:00 +5°C° 0 mm 1 mps 735 mmHg 94%
    06:00 +6°C° 0 mm 2 mps 734 mmHg 88%
    07:00 +7°C° 0 mm 2 mps 734 mmHg 82%
    08:00 +9°C° 0 mm 2 mps 734 mmHg 76%
    09:00 +10°C° 0.1 mm 2 mps 733 mmHg 73%
    10:00 +10°C° 0.1 mm 2 mps 733 mmHg 70%
    11:00 +12°C° 0.1 mm 2 mps 733 mmHg 68%
    12:00 +12°C° 0.3 mm 2 mps 732 mmHg 71%
    13:00 +10°C° 0.3 mm 2 mps 732 mmHg 74%
    14:00 +10°C° 0.3 mm 2 mps 732 mmHg 77%
    15:00 +9°C° 0.4 mm 3 mps 733 mmHg 80%
    16:00 +9°C° 0.4 mm 3 mps 733 mmHg 84%
    17:00 +8°C° 0.4 mm 3 mps 733 mmHg 87%
    18:00 +8°C° 0.5 mm 3 mps 734 mmHg 88%
    19:00 +6°C° 0.5 mm 4 mps 735 mmHg 88%
    20:00 +6°C° 0.5 mm 5 mps 735 mmHg 88%
    21:00 +6°C° 0.1 mm 5 mps 736 mmHg 88%
    22:00 +5°C° 0.1 mm 5 mps 737 mmHg 89%
    23:00 +5°C° 0.1 mm 5 mps 737 mmHg 89%

    Day after tomorrow, 27 April, Friday

    Time Temperature Precipitation Wind Pressure Humidity
    00:00 +4°C° 0 mm 4 mps 738 mmHg 90%
    01:00 +3°C° 0 mm 4 mps 738 mmHg 92%
    02:00 +3°C° 0 mm 3 mps 739 mmHg 93%
    03:00 +3°C° 0 mm 3 mps 739 mmHg 93%
    04:00 +3°C° 0 mm 3 mps 739 mmHg 94%
    05:00 +2°C° 0 mm 3 mps 740 mmHg 94%
    06:00 +4°C° 0 mm 3 mps 740 mmHg 91%
    07:00 +5°C° 0 mm 3 mps 741 mmHg 87%
    08:00 +6°C° 0 mm 4 mps 741 mmHg 83%
    09:00 +7°C° 0.2 mm 4 mps 742 mmHg 77%
    10:00 +8°C° 0.2 mm 4 mps 742 mmHg 72%
    11:00 +10°C° 0.2 mm 4 mps 743 mmHg 66%
    12:00 +11°C° 0.2 mm 4 mps 743 mmHg 62%
    13:00 +11°C° 0.2 mm 4 mps 743 mmHg 58%
    14:00 +12°C° 0.2 mm 4 mps 743 mmHg 54%
    15:00 +12°C° 0 mm 4 mps 743 mmHg 53%
    16:00 +12°C° 0 mm 3 mps 743 mmHg 52%
    17:00 +12°C° 0 mm 2 mps 743 mmHg 51%
    18:00 +10°C° 0 mm 2 mps 743 mmHg 58%
    19:00 +9°C° 0 mm 1 mps 744 mmHg 64%
    20:00 +7°C° 0 mm 1 mps 744 mmHg 71%
    21:00 +7°C° 0 mm 1 mps 744 mmHg 74%
    22:00 +6°C° 0 mm 1 mps 744 mmHg 77%
    23:00 +6°C° 0 mm 1 mps 745 mmHg 80%

    28 April, Saturday

    Time Temperature Precipitation Wind Pressure Humidity
    00:00 +5°C° 0 mm 1 mps 745 mmHg 83%
    01:00 +5°C° 0 mm 1 mps 745 mmHg 86%
    02:00 +5°C° 0 mm 1 mps 745 mmHg 89%
    03:00 +4°C° 0 mm 2 mps 745 mmHg 90%
    04:00 +3°C° 0 mm 2 mps 745 mmHg 91%
    05:00 +3°C° 0 mm 2 mps 745 mmHg 93%
    06:00 +5°C° 0 mm 2 mps 746 mmHg 86%
    07:00 +7°C° 0 mm 2 mps 746 mmHg 80%
    08:00 +8°C° 0 mm 3 mps 746 mmHg 74%
    09:00 +9°C° 0.4 mm 3 mps 746 mmHg 69%
    10:00 +10°C° 0.4 mm 4 mps 746 mmHg 65%
    11:00 +11°C° 0.4 mm 4 mps 746 mmHg 60%
    12:00 +11°C° 0.4 mm 4 mps 747 mmHg 58%
    13:00 +12°C° 0.4 mm 4 mps 747 mmHg 55%
    14:00 +12°C° 0.4 mm 4 mps 747 mmHg 53%
    15:00 +12°C° 0.1 mm 4 mps 747 mmHg 53%
    16:00 +12°C° 0.1 mm 4 mps 747 mmHg 54%
    17:00 +11°C° 0.1 mm 3 mps 747 mmHg 54%
    18:00 +10°C° 0 mm 3 mps 747 mmHg 61%
    19:00 +8°C° 0 mm 2 mps 747 mmHg 67%
    20:00 +7°C° 0 mm 1 mps 748 mmHg 74%
    21:00 +7°C° 0 mm 1 mps 748 mmHg 76%
    22:00 +6°C° 0 mm 1 mps 748 mmHg 78%
    23:00 +6°C° 0 mm 1 mps 748 mmHg 80%

    29 April, Sunday

    Time Temperature Precipitation Wind Pressure Humidity
    00:00 +6°C° 0 mm 1 mps 748 mmHg 81%
    01:00 +5°C° 0 mm 1 mps 748 mmHg 83%
    02:00 +5°C° 0 mm 1 mps 748 mmHg 84%
    03:00 +4°C° 0 mm 2 mps 748 mmHg 83%
    04:00 +5°C° 0 mm 2 mps 747 mmHg 82%
    05:00 +4°C° 0 mm 3 mps 747 mmHg 81%
    06:00 +5°C° 0.2 mm 3 mps 746 mmHg 82%
    07:00 +6°C° 0.2 mm 4 mps 746 mmHg 82%
    08:00 +6°C° 0.2 mm 4 mps 745 mmHg 83%
    09:00 +7°C° 0.3 mm 4 mps 745 mmHg 85%
    10:00 +7°C° 0.3 mm 4 mps 745 mmHg 86%
    11:00 +8°C° 0.3 mm 4 mps 744 mmHg 88%
    12:00 +8°C° 0.1 mm 4 mps 744 mmHg 86%
    13:00 +10°C° 0.1 mm 4 mps 744 mmHg 84%
    14:00 +10°C° 0.1 mm 4 mps 745 mmHg 81%
    15:00 +10°C° 0.1 mm 4 mps 745 mmHg 80%
    16:00 +10°C° 0.1 mm 4 mps 745 mmHg 78%
    17:00 +8°C° 0.1 mm 5 mps 745 mmHg 77%
    18:00 +8°C° 0 mm 4 mps 746 mmHg 79%
    19:00 +7°C° 0 mm 4 mps 746 mmHg 81%
    20:00 +6°C° 0 mm 4 mps 746 mmHg 82%
    21:00 +6°C° 0 mm 4 mps 747 mmHg 84%
    22:00 +5°C° 0 mm 4 mps 747 mmHg 85%
    23:00 +5°C° 0 mm 4 mps 747 mmHg 87%

    30 April, Monday

    Time Temperature Precipitation Wind Pressure Humidity
    00:00 +4°C° 0 mm 4 mps 747 mmHg 88%
    01:00 +4°C° 0 mm 4 mps 747 mmHg 88%
    02:00 +4°C° 0 mm 4 mps 746 mmHg 89%
    03:00 +4°C° 0 mm 4 mps 747 mmHg 88%
    04:00 +4°C° 0 mm 4 mps 747 mmHg 86%
    05:00 +3°C° 0 mm 5 mps 747 mmHg 84%
    06:00 +3°C° 0 mm 5 mps 747 mmHg 81%
    07:00 +5°C° 0 mm 5 mps 747 mmHg 79%
    08:00 +6°C° 0 mm 5 mps 748 mmHg 76%
    09:00 +6°C° 0 mm 5 mps 748 mmHg 74%
    10:00 +7°C° 0 mm 5 mps 749 mmHg 73%
    11:00 +7°C° 0 mm 5 mps 749 mmHg 71%
    12:00 +8°C° 0 mm 5 mps 749 mmHg 68%
    13:00 +9°C° 0 mm 5 mps 749 mmHg 65%
    14:00 +11°C° 0 mm 4 mps 750 mmHg 61%
    15:00 +11°C° 0 mm 4 mps 750 mmHg 60%
    16:00 +11°C° 0 mm 3 mps 750 mmHg 59%
    17:00 +11°C° 0 mm 3 mps 750 mmHg 58%
    18:00 +10°C° 0 mm 2 mps 750 mmHg 65%
    19:00 +8°C° 0 mm 2 mps 750 mmHg 72%
    20:00 +7°C° 0 mm 1 mps 750 mmHg 79%
    21:00 +7°C° 0 mm 1 mps 750 mmHg 80%
    22:00 +7°C° 0 mm 1 mps 750 mmHg 81%
    23:00 +6°C° 0 mm 1 mps 751 mmHg 82%
    Show more